Weather History for KBGR - August, 2011

Change the Weather History Date:

Monday, August 22, 2011

  Actual Average Record
Temperature  
Mean Temperature 66 °F 66 °F  
Max Temperature 76 °F 78 °F 103 °F (1948)
Min Temperature 55 °F 55 °F 39 °F (1940)
Degree Days  
Heating Degree Days 0 2  
Month to date heating degree days 5 23  
Since 1 June heating degree days 123 153  
Since 1 July heating degree days 9 46  
Cooling Degree Days 1 3  
Month to date cooling degree days 71 80  
Year to date cooling degree days 293 270  
Since 1 June cooling degree days 285 264  
Growing Degree Days 16 (Base 50)    
Moisture  
Dew Point 60 °F    
Average Humidity 72    
Maximum Humidity 100    
Minimum Humidity 43    
Precipitation  
Precipitation 1.71 in 0.10 in 1.71 in (2011)
Month to date precipitation 6.19 2.18  
Year to date precipitation 28.20 25.45  
Snow  
Snow 0.00 in 0.00 in 0.00 in (2002)
Month to date snowfall 0.0 0.0  
Since 1 June snowfall 0.0 0.0  
Since 1 July snowfall 0.0 0.0  
Snow Depth 0.00 in    
Sea Level Pressure  
Sea Level Pressure 29.67 in    
Wind  
Wind Speed 11 mph (WSW)    
Max Wind Speed 25 mph    
Max Gust Speed 33 mph    
Visibility 8 miles    
Events Rain    
T = Trace of Precipitation, MM = Missing Value Source: NWS Daily Summary

Daily Weather History Graph

Daily Weather History Graph

Search for Another Location

Airport or City:

Trip Planner

Search our weather history database for the weather conditions in past years. The results will help you decide how hot, cold, wet, or windy it might be!

Date:

Astronomy

Aug. 22, 2011 Rise Set
Actual Time 5:45 AM EDT 7:30 PM EDT
Civil Twilight 5:14 AM EDT 8:01 PM EDT
Nautical Twilight 4:36 AM EDT 8:38 PM EDT
Astronomical Twilight 3:55 AM EDT 9:19 PM EDT
Moon 11:40 PM EDT (8/22) 2:39 PM EDT (8/22)
Length of Visible Light 14h 47m
Length of Day
13h 44m
Last Quarter, 43% of the Moon is Illuminated
Aug 22
Last Quarter
Aug 28
New
Sep 4
First Quarter
Sep 12
Full
Sep 20
Last Quarter

Hourly Weather History & Observations

Time (EDT) Temp. Dew Point Humidity Pressure Visibility Wind Dir Wind Speed Gust Speed Precip Events Conditions
12:53 AM 69.1 °F 66.9 °F 93% 29.73 in 10.0 mi South 18.4 mph 28.8 mph 0.00 in Rain Light Rain
1:53 AM 69.1 °F 66.9 °F 93% 29.70 in 9.0 mi South 12.7 mph 23.0 mph 0.27 in Rain Heavy Rain
2:53 AM 69.1 °F 66.9 °F 93% 29.67 in 10.0 mi South 16.1 mph 29.9 mph 0.30 in   Overcast
3:53 AM 69.8 °F 66.2 °F 88% 29.65 in 10.0 mi South 16.1 mph 27.6 mph N/A Rain Light Rain
4:53 AM 69.1 °F 66.9 °F 93% 29.64 in 10.0 mi South 15.0 mph 21.9 mph 0.01 in   Overcast
5:14 AM 69.8 °F 66.2 °F 88% 29.64 in 10.0 mi South 13.8 mph 21.9 mph N/A   Overcast
5:53 AM 69.8 °F 66.2 °F 88% 29.64 in 10.0 mi South 17.3 mph 24.2 mph N/A Rain Rain
6:15 AM 64.4 °F 62.6 °F 94% 29.64 in 3.0 mi West 5.8 mph 18.4 mph 0.16 in Rain Heavy Rain
6:46 AM 62.6 °F 60.8 °F 94% 29.63 in 3.0 mi Calm Calm - N/A Rain Heavy Rain
6:53 AM 63.0 °F 62.1 °F 97% 29.62 in 3.0 mi Calm Calm - 0.54 in Rain Heavy Rain
7:14 AM 62.6 °F 62.6 °F 100% 29.65 in 1.5 mi Calm Calm - 0.36 in Rain Heavy Rain
7:37 AM 64.4 °F 62.6 °F 94% 29.63 in 2.0 mi ESE 3.5 mph - N/A Rain Rain
7:53 AM 64.0 °F 63.0 °F 96% 29.63 in 3.0 mi ESE 5.8 mph - 0.46 in Rain Rain
8:31 AM 66.2 °F 64.4 °F 94% 29.61 in 10.0 mi North 4.6 mph - 0.00 in   Mostly Cloudy
8:53 AM 68.0 °F 64.9 °F 90% 29.60 in 10.0 mi Calm Calm - 0.00 in   Mostly Cloudy
9:53 AM 70.0 °F 64.9 °F 84% 29.61 in 10.0 mi WSW 8.1 mph - N/A   Mostly Cloudy
10:53 AM 71.6 °F 62.6 °F 73% 29.63 in 10.0 mi Variable 6.9 mph - N/A   Mostly Cloudy
11:27 AM 73.4 °F 60.8 °F 65% 29.63 in 10.0 mi Variable 4.6 mph - N/A   Mostly Cloudy
11:53 AM 73.0 °F 55.0 °F 53% 29.62 in 10.0 mi WNW 13.8 mph 21.9 mph N/A   Mostly Cloudy
12:53 PM 75.0 °F 55.9 °F 51% 29.62 in 10.0 mi West 12.7 mph 16.1 mph N/A   Mostly Cloudy
1:53 PM 75.0 °F 52.0 °F 44% 29.62 in 10.0 mi WSW 10.4 mph 17.3 mph N/A   Mostly Cloudy
2:53 PM 73.9 °F 52.0 °F 46% 29.63 in 10.0 mi WNW 17.3 mph 25.3 mph N/A   Mostly Cloudy
3:53 PM 72.0 °F 51.1 °F 48% 29.65 in 10.0 mi West 12.7 mph 18.4 mph N/A   Mostly Cloudy
4:53 PM 70.0 °F 51.1 °F 51% 29.68 in 10.0 mi WNW 9.2 mph 18.4 mph N/A   Mostly Cloudy
5:53 PM 69.1 °F 52.0 °F 54% 29.70 in 10.0 mi NW 9.2 mph 19.6 mph N/A   Mostly Cloudy
6:53 PM 66.9 °F 54.0 °F 63% 29.72 in 10.0 mi Calm Calm - N/A   Scattered Clouds
7:53 PM 63.0 °F 53.1 °F 70% 29.75 in 10.0 mi WNW 6.9 mph - N/A   Partly Cloudy
8:53 PM 62.1 °F 52.0 °F 70% 29.78 in 10.0 mi West 5.8 mph - N/A   Partly Cloudy
9:53 PM 57.0 °F 53.1 °F 87% 29.80 in 10.0 mi WSW 3.5 mph - N/A   Clear
10:53 PM 57.0 °F 54.0 °F 89% 29.81 in 10.0 mi WSW 4.6 mph - N/A   Clear
11:53 PM 57.0 °F 53.1 °F 87% 29.81 in 10.0 mi SW 4.6 mph - N/A   Clear